Location: Dittelbrunn
(50.0738°N, 10.2196°E)
Time: 01:50:22
(UTC+00:00)

Resurs 01 Rocket - Pass Details

Date: 18 September 2020
Orbit: 633 x 645 km, 98.0° (Epoch: 30 October)

Event Time Altitude Azimuth Distance (km) Brightness Sun altitude
Exits shadow 20:56:49 21° 261° (W) 1,456 3.7 -30.8°
Maximum altitude 20:57:12 21° 268° (W) 1,447 3.8 -30.9°
Drops below altitude 10° 21:00:37 10° 318° (NW) 2,053 5.1 -31.2°
Sets 21:03:18 0° 335° (NNW) 2,967 6.1 -31.5°
